Terminal Aerodrome Forecast
Issued by NWS

Home | Current Version | Previous Version | Text Only | Print | Product List | Glossary On
Versions: 1 2 3 4 5 6 7 8 9 10 11 12 13 14 15 16 17 18 19 20
000
FTUS43 KLSX 220659 AAA
TAFSUS
TAF AMD
KSUS 220659Z 2207/2306 15011G18KT P6SM VCSH BKN050
     FM221100 16010G17KT 6SM -SHRA VCTS BKN040CB
      TEMPO 2211/2214 3SM SHRA OVC025
     FM221500 22013KT 6SM -SHRA OVC015
     FM221900 30012KT P6SM -SHRA OVC015
     FM222100 32012KT P6SM BKN035=

USA.gov is the U.S. government's official web portal to all federal, state and local government web resources and services.